Location: Stillwell
(40.4602°N, 82.0928°W)
Time: 13:37:46
(UTC-04:00)

Cosmos 292 Rocket - Pass Details

Date: 25 May 2018
Orbit: 675 x 693 km, 74.0° (Epoch: 19 October)

Event Time Altitude Azimuth Distance (km) Brightness Sun altitude
Exits shadow 22:22:25 - 198° (SSW) 2,962 6.8 -15.2°
Reaches altitude 10° 22:24:33 10° 199° (SSW) 2,110 6.0 -15.5°
Maximum altitude 22:29:19 87° 289° (WNW) 684 3.7 -16.1°
Drops below altitude 10° 22:34:05 10° 18° (NNE) 2,118 6.7 -16.7°
Sets 22:36:23 0° 19° (NNE) 3,035 7.5 -17.0°
